Regional Weather Roundup
Issued by NWS

Home | Current Version | Previous Version | Graphics & Text | Print | Product List | Glossary On
Versions: 1 2 3 4 5 6 7 8 9 10 11 12 13 14 15 16 17 18 19 20 21 22 23 24 25 26 27 28 29 30 31 32 33 34 35 36 37 38 39 40 41 42 43 44 45 46 47 48 49 50
000
ASUS43 KFSD 300102
RWRSD

WEATHER ROUNDUP FOR SOUTH DAKOTA
NATIONAL WEATHER SERVICE SIOUX FALLS SD
800 PM CDT THU SEP 29 2016

NOTE: "FAIR" INDICATES FEW OR NO CLOUDS BELOW 12,000 FEET WITH NO
SIGNIFICANT WEATHER AND/OR OBSTRUCTIONS TO VISIBILITY.


SDZ001>005-009-010-012>017-300200-
NORTHWEST AND NORTH CENTRAL SOUTH DAKOTA

CITY           SKY/WX    TMP DP  RH WIND       PRES   REMARKS
BUFFALO          N/A     70  45  40 E14       30.08S
FAITH            N/A     67  42  40 SE17      30.19R
MOBRIDGE       CLEAR     64  41  42 SE14      30.23S
$$

SDZ012>016-024>037-041>051-057-063-072>074-300200-
SOUTHWEST AND SOUTH CENTRAL SOUTH DAKOTA

CITY           SKY/WX    TMP DP  RH WIND       PRES   REMARKS
RAPID CTY ARPT CLEAR     68  45  43 S9        30.17S
PIERRE         CLEAR     62  44  51 SE10      30.24S
CUSTER         CLOUDY    65  41  41 SE3       30.30S
ELLSWORTH AFB  CLEAR     72  45  38 S12       30.16S
PHILIP         CLEAR     65  41  41 E10       30.19R
PINE RIDGE     CLEAR     71  42  35 S9        30.21R
WINNER         FAIR      57  45  64 SE9       30.28F
$$

SDZ004>011-016>023-039-040-300200-
NORTHEAST SOUTH DAKOTA

CITY           SKY/WX    TMP DP  RH WIND       PRES   REMARKS
ABERDEEN       CLEAR     57  43  59 E5        30.33R
WATERTOWN      CLEAR     59  47  64 E5        30.35F
SISSETON         N/A     55  46  71 SE6       30.35S
$$

SDZ017-020-022-023-036>040-048>070-300200-
SOUTHEAST SOUTH DAKOTA

CITY           SKY/WX    TMP DP  RH WIND       PRES   REMARKS
SIOUX FALLS    CLEAR     58  48  69 E3        30.34S
HURON          CLEAR     60  46  59 SE6       30.32R
CHAMBERLAIN    CLEAR     60  48  65 SE8       30.30S
MITCHELL       CLEAR     57  46  66 SE6       30.33S
YANKTON        CLEAR     63  46  55 SE3       30.31F
$$

ABBREVIATIONS USED IN REMARKS
   TC - TEMPERATURE IN CELSIUS
  WCI - WIND CHILL INDEX
   HX - HEAT INDEX
  VSB - VISIBILITY





USA.gov is the U.S. government's official web portal to all federal, state and local government web resources and services.